Weather in Kanazawa

Japan     36°30′24″N   136°42′23″E
temp.,
°C
wind,
m/s
gust,
m/s
humid.,
%
clouds,
%
prec.,
mm/h
press.,
hPa
HPBL,
m
6 december, mon
mon600:00+3se11814 0.0 102925
03:00+3sse1182100 0.0 102915
06:00+4e118229 0.0 102826
09:00+5e1188100 0.7 102928
12:00+6w1190100 0.8 1027105
15:00+6e1290100 1.1 102654
18:00+7ene1190100 0.0 102631
21:00+6se119070 0.0 102626
7 december, tue
tue700:00+7ese1190100 0.0 102518
03:00+7e119035 0.1 102443
06:00+7ese1196100 1.2 102451
09:00+8ene239092 2.3 1024147
12:00+10ene2484100 0.1 1022531
15:00+8ene249790 5.9 1021252
18:00+8ene1397100 0.3 1022280
21:00+8nne2399100 2.0 1022259
8 december, wed
wed800:00+8nne31095100 2.9 1022909
03:00+8nne2896100 5.1 1023769
06:00+7n3893100 1.6 1024652
09:00+7nne278797 3.9 1026712
12:00+7ne2582100 0.5 1027655
15:00+7ne2487100 0.8 1027519
18:00+7ene138699 0.1 1029277
21:00+7ene138798 0.1 1030242
9 december, thu
thu900:00+7e128785 0.0 103092
03:00+7ene238496 0.0 103089
06:00+7e258270 0.0 1029134
09:00+9e25685 0.0 1029693
12:00+11ne22610 0.0 1028799
15:00+11nne21640 0.0 1027685
18:00+8ese1181100 0.0 102852
21:00+7se1178100 0.0 102727
10 december, fri
fri1000:00+8ssw2173100 0.0 102621
03:00+7s1169100 0.0 102618
06:00+7sse2269100 0.0 102624
09:00+9sw1163100 0.0 102671
12:00+12w235597 0.0 1024958
15:00+11w235827 0.0 10231128
18:00+9ssw117278 0.1 102490
21:00+9s117383 0.3 102438